Theta_e
309 311 311 312 312 313 313 314 315 315 316 316 315 317 320 324 321 321 322 325 326 328 328 334 338 340 340 341 342 340 338 332 329 331 325 328 326 326 328 327 329 327 325
309 310 310 311 311 310 313 315 316 315 314 313 315 318 321 320 320 320 319 319 320 322 326 329 331 337 338 339 341 340 339 335 329 326 324 325 323 323 324 324 327 329 326
308 309 310 310 309 310 312 313 311 312 311 313 314 315 317 319 317 317 317 320 321 322 324 327 329 331 333 336 337 339 339 333 327 324 323 322 321 322 322 322 323 321 324
305 306 307 308 310 311 311 311 310 310 310 311 312 314 315 315 316 316 316 315 317 321 326 326 327 330 329 331 335 337 338 329 326 324 322 320 319 319 320 321 323 318 318
305 304 304 307 307 307 308 308 309 309 311 311 310 310 311 313 314 313 314 315 315 316 318 323 323 323 323 321 327 335 334 329 325 322 319 317 316 320 319 317 317 317 316
304 304 305 306 307 306 307 309 310 310 310 310 310 312 310 312 307 306 309 311 313 314 312 315 318 319 320 316 316 317 328 327 324 322 320 319 317 317 316 316 315 320 317
304 305 306 306 307 308 310 309 308 308 309 309 309 309 310 310 304 302 304 309 310 311 313 314 316 321 318 324 322 313 315 315 319 326 323 321 317 318 317 314 314 315 314
304 305 307 307 307 308 308 308 308 306 306 306 306 307 307 310 303 301 303 307 310 312 313 315 316 318 320 321 329 325 327 325 323 325 326 324 323 321 322 319 317 315 316
303 303 305 306 306 306 305 304 304 302 302 303 304 304 305 307 302 301 302 308 309 310 314 315 316 316 312 304 324 327 325 325 312 312 311 309 305 306 314 319 315 314 315
300 302 304 305 304 304 303 301 301 301 303 304 304 304 304 304 300 299 301 308 307 309 309 312 307 311 305 302 321 328 323 323 321 318 315 310 308 307 308 321 319 315 313
300 301 302 303 303 304 303 302 302 302 303 303 302 303 303 304 304 298 298 304 305 305 307 310 310 305 301 300 305 328 323 321 315 321 319 317 316 316 319 319 321 318 312
298 298 299 299 301 302 302 302 302 303 302 301 301 302 304 305 302 300 298 298 304 307 309 310 310 302 301 299 304 309 301 312 322 319 317 314 314 315 317 318 318 317 320
297 297 298 299 300 301 300 301 301 302 301 301 301 302 303 305 305 300 299 298 298 303 310 307 303 298 298 299 300 302 304 322 320 317 315 313 315 317 317 318 317 317 321
295 295 296 296 297 298 300 301 302 301 301 302 303 303 304 305 307 308 305 304 300 302 304 304 305 304 302 311 307 310 323 322 320 318 316 314 317 316 316 318 317 315 316
295 296 296 298 299 299 301 301 301 303 303 303 304 305 304 303 305 304 305 309 309 309 307 309 309 312 314 317 315 318 322 319 318 315 315 316 317 318 317 322 320 319 317
296 297 297 298 299 300 301 301 300 300 300 299 299 303 307 302 298 297 298 298 298 298 309 311 312 316 318 319 318 320 320 316 318 318 317 316 315 319 319 318 319 319 315
296 297 299 299 301 301 301 301 301 302 298 298 297 297 297 300 296 296 297 295 295 296 314 316 317 320 320 320 321 321 318 319 319 319 318 316 314 313 314 317 317 317 317
296 296 297 297 298 299 300 302 305 306 301 299 295 297 295 296 294 294 294 294 307 302 319 319 319 321 321 321 321 319 318 318 318 317 317 316 314 314 314 316 316 315 315
296 297 298 299 301 301 301 307 305 304 302 302 303 294 294 293 293 294 293 309 313 318 318 317 320 321 321 319 318 319 319 318 317 317 316 316 317 318 316 316 315 302 306
295 293 293 296 298 303 309 308 306 303 302 302 302 303 302 299 302 303 305 314 319 319 319 319 320 319 319 319 318 318 316 315 316 315 316 317 319 318 315 315 315 314 314
293 294 292 297 314 316 315 313 311 310 308 307 307 304 296 307 308 318 319 320 320 319 319 319 319 319 319 319 319 317 317 317 317 317 319 319 318 316 312 312 316 316 316
292 294 297 307 317 316 313 312 311 310 309 307 306 300 294 311 310 309 309 310 312 315 317 317 315 315 319 320 319 318 317 316 318 318 318 318 316 314 311 313 315 314 312
293 296 310 314 313 305 310 310 308 307 305 305 304 303 302 302 302 302 302 303 304 305 308 310 310 308 309 313 317 320 319 318 317 317 316 316 315 312 312 314 314 313 312
296 303 312 310 309 307 305 304 302 298 302 301 300 297 297 297 296 296 297 298 298 298 299 301 303 305 306 307 309 312 316 315 317 317 316 316 315 308 312 313 313 312 310
300 312 310 307 306 304 303 301 300 299 298 297 296 294 294 293 293 293 294 294 294 294 293 294 296 297 299 301 303 302 293 293 308 302 315 315 312 311 310 309 308 307 306
311 309 306 305 302 301 300 297 296 295 293 293 292 292 291 291 291 291 291 291 290 290 290 290 291 291 292 292 292 289 289 291 296 293 307 307 306 304 303 301 299 298 299
Wind_Speed
9 9 8 8 8 7 7 7 8 6 7 7 7 6 4 3 4 4 4 6 6 6 6 9 10 8 5 8 9 7 10 9 11 8 4 5 4 4 4 4 5 4 3
7 9 10 10 8 8 9 11 8 9 7 8 7 6 5 6 6 5 6 6 6 7 9 8 9 7 10 11 10 11 12 9 9 14 4 4 2 2 3 3 3 2 2
9 8 10 10 8 10 12 11 8 10 9 7 7 7 7 7 6 7 7 6 7 7 9 10 10 9 10 9 10 11 9 6 8 4 4 2 2 2 2 2 3 2 2
7 7 8 9 10 11 11 10 10 10 10 9 8 9 9 8 7 7 7 7 7 7 8 7 8 8 9 10 12 12 9 7 8 5 4 3 3 1 2 3 2 1 2
6 6 8 9 8 7 7 7 7 7 10 9 8 7 7 7 6 7 7 8 7 6 6 5 7 8 13 12 10 12 8 9 7 5 2 3 3 3 5 3 3 2 2
6 6 6 6 6 8 8 10 9 10 9 8 7 8 7 7 11 12 9 7 7 6 7 8 6 10 10 15 16 17 16 11 9 6 1 5 6 4 4 4 4 3 2
7 6 7 7 9 9 10 9 9 9 9 9 9 8 9 8 11 13 15 9 8 8 9 8 8 8 8 10 13 13 13 13 11 8 15 9 6 8 7 5 4 4 4
8 7 7 8 11 12 10 11 10 7 10 9 8 7 7 8 12 14 17 11 11 9 9 10 8 10 8 9 11 9 9 9 7 6 11 9 8 8 9 7 7 5 3
9 8 8 7 9 8 10 11 8 6 6 6 6 8 9 11 15 17 14 11 11 11 12 8 8 11 11 12 12 13 11 10 6 9 9 9 9 11 10 7 5 5 2
14 12 10 9 9 10 9 7 6 5 8 7 9 9 12 14 14 18 16 11 12 9 13 11 12 10 15 16 13 13 12 9 7 5 3 2 5 6 13 7 8 7 3
13 13 14 13 13 12 8 6 7 9 10 12 13 12 13 14 14 17 17 11 11 12 11 8 5 13 18 16 19 13 12 11 7 7 5 4 4 5 5 4 6 6 4
17 17 15 14 13 13 16 15 15 15 16 16 14 13 12 13 16 15 18 20 16 12 12 7 6 12 16 14 12 13 11 12 7 6 5 3 4 4 4 4 5 4 3
14 15 15 15 14 14 15 16 14 15 14 14 13 13 12 10 8 16 17 20 22 13 10 9 11 10 12 10 13 13 14 9 8 7 6 4 4 4 6 5 5 4 3
18 18 16 16 16 16 14 14 14 14 14 14 15 14 12 11 10 9 9 11 14 10 10 7 9 9 7 8 7 10 8 8 9 7 6 4 4 4 4 3 3 3 3
18 17 17 15 16 15 16 15 16 19 18 16 16 14 12 13 11 13 13 9 9 10 9 9 9 7 8 6 5 6 6 7 7 4 5 4 4 4 3 3 3 3 2
16 14 14 13 13 14 14 16 26 33 29 28 22 14 12 17 13 16 15 16 17 12 7 8 9 10 10 8 7 8 6 8 7 6 6 5 4 5 4 2 2 3 3
17 16 14 15 12 13 13 14 15 18 35 33 28 23 19 9 13 14 16 15 14 9 11 11 12 11 11 9 7 8 8 7 8 7 7 5 5 4 5 3 3 2 2
17 21 14 14 13 14 14 14 13 14 12 11 15 19 18 21 14 11 9 7 7 11 14 12 14 13 12 11 9 8 7 7 7 7 6 6 5 5 4 4 3 3 3
14 12 12 13 14 14 13 4 2 5 7 7 8 6 9 13 13 11 15 9 10 10 9 9 9 10 11 10 8 8 10 8 7 7 6 6 6 5 3 3 4 4 4
12 22 17 12 13 11 3 2 4 6 6 6 8 8 7 6 5 6 9 11 9 9 9 9 8 8 9 11 8 8 7 7 6 5 6 5 5 4 4 4 4 4 3
9 13 14 11 4 5 4 5 6 6 6 7 6 7 12 10 10 11 10 9 9 8 8 9 9 9 9 8 8 7 8 6 6 6 5 5 5 5 4 4 3 3 3
9 10 10 7 8 8 9 9 10 10 10 10 10 9 10 11 11 11 10 9 8 8 7 8 9 7 7 8 7 7 6 6 6 6 5 5 5 4 4 3 4 3 3
8 9 2 11 10 10 9 9 11 11 11 11 11 11 12 11 10 10 10 9 9 9 8 10 9 7 6 5 5 7 7 6 5 6 6 5 5 4 4 4 4 3 3
7 5 10 10 10 9 9 11 11 12 13 12 12 12 11 11 11 12 10 9 10 10 9 9 8 8 7 7 6 6 6 5 5 5 8 6 4 5 5 4 4 4 3
4 9 11 11 10 10 10 11 12 12 12 12 12 11 11 10 11 10 10 10 10 11 11 9 7 9 11 12 10 8 7 9 7 7 5 7 7 7 5 5 4 4 5
9 11 10 9 10 10 11 11 11 12 12 11 11 11 10 11 11 10 10 10 10 11 11 10 12 15 13 10 9 9 10 10 10 10 8 8 8 7 7 8 10 6 7
Wind_Direction
198 203 194 202 203 203 195 213 212 212 214 207 217 225 236 241 241 243 260 272 278 286 293 290 280 285 295 264 252 239 239 233 250 269 260 251 175 169 151 156 146 159 180
266 212 207 208 198 192 204 217 209 204 204 208 204 203 212 226 233 216 237 264 273 279 278 278 276 279 254 252 254 248 242 227 228 251 239 241 168 187 150 140 130 137 186
206 228 238 211 194 206 212 217 198 205 212 211 201 205 209 212 216 226 222 235 243 245 267 274 274 276 282 265 251 252 242 229 221 221 222 242 254 144 116 94 111 104 93
204 195 216 234 216 216 217 212 208 209 209 212 209 211 211 211 214 222 221 224 231 236 240 264 282 291 297 303 281 259 245 224 209 217 209 136 224 178 107 137 151 153 157
185 199 215 226 222 212 217 218 218 210 221 217 210 212 214 204 215 221 232 237 235 239 254 254 262 264 270 274 273 277 230 225 206 199 184 131 184 157 191 159 155 156 200
306 301 270 242 225 230 224 224 223 225 217 212 216 220 221 229 229 225 225 232 237 229 254 260 251 268 270 269 281 256 220 204 193 165 206 218 214 164 155 146 141 168 206
263 255 256 248 240 221 218 210 212 215 216 219 226 222 232 232 234 237 234 238 235 225 232 249 265 275 275 285 286 256 204 211 198 208 202 206 192 180 146 140 172 156 191
280 257 243 241 244 241 226 219 217 212 213 211 214 217 223 234 234 241 249 252 254 236 239 248 238 267 263 266 278 216 199 210 221 224 210 205 209 165 164 171 167 131 86
286 286 282 257 248 234 230 228 214 202 213 207 199 207 215 235 224 230 237 248 253 259 259 245 242 255 256 262 269 220 200 196 132 246 241 214 171 149 140 123 135 139 162
275 275 274 268 256 250 237 221 211 208 221 214 226 225 229 245 230 221 223 242 251 245 260 254 231 243 257 259 240 209 195 204 170 159 130 146 134 153 160 158 153 164 143
273 268 263 259 257 254 235 217 224 232 237 237 239 238 240 235 234 221 219 230 247 258 251 244 227 237 255 246 215 201 198 147 166 159 173 132 124 153 174 161 161 152 143
268 265 263 262 259 255 248 248 244 244 243 244 243 242 234 229 223 224 224 230 236 236 242 244 240 252 257 226 211 203 160 128 151 156 159 140 152 161 164 159 157 161 161
268 267 265 261 257 254 254 253 251 243 237 238 235 234 231 224 220 219 218 227 231 230 247 243 243 267 253 227 225 174 146 159 161 164 159 166 172 151 122 105 93 114 120
272 270 267 262 258 254 250 247 242 234 234 234 231 230 228 231 230 206 217 232 247 241 256 249 247 251 216 200 161 166 163 165 169 174 157 144 118 131 121 136 135 135 122
267 263 261 256 255 253 245 241 237 235 231 230 226 222 226 227 218 209 208 216 224 221 209 225 231 208 180 178 140 159 180 159 151 140 150 132 134 132 121 153 110 122 151
270 266 258 258 253 247 246 247 235 234 226 214 210 208 229 224 208 204 199 219 229 205 191 207 196 182 161 156 174 160 180 167 156 149 138 141 137 140 129 127 116 151 168
266 265 264 261 265 267 258 255 258 240 227 220 214 210 213 235 203 203 208 220 234 180 232 196 182 171 159 162 157 173 174 169 148 143 143 144 131 124 140 159 136 148 167
278 275 271 273 266 267 266 263 255 241 198 204 198 195 208 213 211 203 209 194 255 208 201 174 165 156 154 159 166 176 151 147 147 137 138 144 149 138 164 145 163 163 155
280 273 272 271 272 275 275 236 78 92 132 153 168 152 193 202 213 197 168 240 230 179 153 156 153 145 149 140 151 168 148 145 142 141 140 151 148 152 163 146 149 155 146
287 278 270 271 271 252 190 125 100 118 136 158 179 184 156 135 180 191 199 197 155 130 133 140 137 138 145 132 145 135 126 129 137 132 141 140 151 156 144 157 158 151 176
289 286 290 287 225 78 101 143 140 149 162 145 150 157 153 178 186 157 121 108 115 118 125 132 129 134 118 119 131 116 122 137 146 128 137 139 147 139 149 151 143 156 164
285 286 291 298 88 73 71 76 84 94 100 95 100 94 90 80 81 82 83 82 80 82 100 108 91 82 101 109 112 122 129 129 128 124 126 130 128 128 136 136 142 150 166
286 295 324 76 78 73 69 74 74 73 75 74 71 75 74 74 75 78 77 72 72 74 70 76 82 75 63 78 101 128 128 125 118 121 129 129 133 133 132 135 140 145 158
282 307 86 85 85 81 80 81 76 72 78 73 73 71 73 72 71 70 70 71 71 65 61 68 69 80 82 77 71 68 92 101 106 122 125 121 119 129 124 120 125 126 119
289 92 90 92 93 92 87 80 77 76 75 75 73 72 71 74 75 70 68 67 66 65 59 58 58 58 59 64 68 72 75 81 88 92 92 103 105 106 107 97 88 80 74
90 87 83 83 83 81 83 83 77 75 75 74 73 69 70 70 67 68 67 70 71 66 63 55 52 54 53 47 52 61 68 72 76 73 84 89 92 84 85 82 79 72 71